Theta_e
337 337 343 344 345 345 346 345 345 347 346 347 346 345 344 344 343 343 343 342 341 342 342 342 341 341 340 343 342 342 341 342 344 343 343 344 344 344 344 345 345 345 345 345 344 345 345 345 346 346 347 347 347 347 347 347 347 346 346 346 345 344 344 345 345 343 343 343 344 344 344 344 344 344 344 342 340 339 338 338 338 334 335 335 337
336 340 343 345 345 345 345 346 346 346 346 346 346 345 343 342 342 342 341 339 339 340 341 340 341 342 342 342 342 341 340 340 340 341 342 343 343 342 343 343 343 343 344 345 345 345 346 346 346 346 347 347 347 346 345 345 345 345 344 344 343 343 343 342 342 342 343 343 344 343 343 344 343 343 343 341 339 338 336 336 336 333 332 336 335
337 339 344 345 345 345 346 346 345 346 346 345 344 344 343 341 341 341 340 341 342 342 341 340 340 340 341 340 340 340 341 341 340 344 347 348 347 347 346 345 345 344 344 345 345 345 345 345 346 347 347 346 345 345 345 344 343 342 342 342 341 341 340 339 340 340 340 343 343 343 341 342 342 342 343 340 337 336 334 336 335 334 332 335 334
335 338 343 343 345 345 345 345 345 345 345 344 344 343 343 342 340 338 338 340 342 342 342 342 342 342 342 341 341 340 341 341 341 344 345 346 346 345 344 344 344 345 345 345 347 346 346 346 346 346 345 345 344 342 342 341 340 340 339 339 338 338 339 338 339 340 341 340 341 338 336 335 337 339 340 339 336 335 333 334 335 335 333 333 334
335 337 340 344 345 345 345 345 345 344 345 344 343 343 342 341 341 340 339 342 339 338 343 341 341 342 341 341 341 339 338 339 341 343 344 343 343 343 343 342 342 342 342 344 346 346 345 346 346 346 344 343 342 341 340 340 339 339 339 338 337 337 338 337 338 339 340 338 339 335 332 333 331 335 337 337 336 334 331 331 332 333 331 331 332
334 335 339 343 346 346 346 346 344 344 344 343 342 341 341 341 342 343 342 340 339 339 339 339 339 339 339 341 342 342 342 341 341 341 344 344 344 344 343 343 343 345 346 346 346 345 346 345 345 344 343 342 341 340 339 340 339 338 338 338 336 336 336 336 337 338 340 337 337 333 332 332 331 332 335 336 334 335 332 331 332 332 331 334 336
333 334 337 339 344 345 345 345 343 342 343 343 342 341 341 342 344 346 345 342 340 338 339 341 339 339 341 341 341 340 340 339 339 341 343 343 343 343 344 345 345 345 345 345 345 345 344 345 344 344 343 341 339 338 338 338 338 338 337 337 336 336 335 336 336 339 336 335 333 332 331 331 333 331 335 336 335 334 332 332 332 332 332 332 334
335 336 337 337 344 345 345 345 343 342 342 342 341 340 342 344 345 346 345 343 341 340 339 340 340 339 337 337 340 339 337 339 340 339 342 342 341 341 345 344 345 344 344 344 344 344 344 344 343 342 342 341 339 338 337 337 337 337 337 336 335 334 335 335 335 336 333 330 333 332 331 332 331 332 333 333 333 332 331 332 331 331 331 330 331
334 335 336 337 344 343 345 345 343 342 342 341 340 340 342 344 344 344 344 342 340 338 337 337 335 335 339 340 341 341 340 339 338 339 340 342 341 342 343 345 344 344 344 343 344 343 343 343 342 342 342 340 338 337 336 336 335 335 336 334 334 335 335 336 336 334 330 329 330 331 332 331 331 331 332 333 332 331 331 332 332 330 331 330 329
333 335 336 338 341 340 344 344 343 341 341 341 340 341 345 344 343 342 341 341 340 337 336 338 339 338 340 341 341 340 340 339 339 339 340 341 341 341 342 341 341 342 342 342 342 342 342 342 341 341 341 339 338 336 335 335 334 334 334 333 334 334 335 336 336 331 329 331 331 330 331 334 329 330 332 333 332 330 330 332 334 333 333 329 330
333 334 335 338 340 339 343 344 345 344 341 341 340 342 344 343 342 341 341 341 340 339 341 342 343 343 342 341 341 341 341 342 341 341 341 341 342 342 342 343 343 343 342 342 343 342 342 342 341 341 340 339 337 336 334 334 333 333 332 331 333 334 335 336 332 329 331 331 330 330 331 335 329 329 333 333 332 331 331 332 332 331 331 329 330
332 334 337 339 341 339 343 345 345 343 341 340 341 341 342 341 340 340 340 342 341 340 341 342 342 342 342 342 342 342 341 341 340 340 340 342 343 342 342 342 341 341 342 341 341 340 340 341 341 341 340 339 336 335 334 333 332 332 331 331 332 332 334 334 330 331 333 331 331 331 328 327 328 329 333 333 332 331 330 330 330 330 329 328 329
333 333 338 339 340 339 343 345 344 344 343 340 340 339 340 340 339 339 341 343 341 339 339 340 340 342 342 341 341 340 339 338 338 338 338 341 342 341 341 340 340 341 340 341 340 340 340 340 341 340 339 337 335 334 333 332 332 331 331 331 332 333 332 331 331 332 330 331 330 330 329 329 330 332 332 332 332 331 331 330 330 329 329 330 329
333 334 336 335 339 342 339 342 343 345 345 343 339 339 339 338 338 340 342 342 340 338 337 338 338 338 338 337 337 338 338 338 338 338 338 339 339 341 341 340 339 339 340 340 340 339 339 339 340 339 338 336 335 335 333 332 331 330 331 331 331 332 329 330 331 331 331 330 330 329 328 329 330 332 332 331 331 331 330 330 329 332 333 331 329
333 335 335 337 337 341 342 339 342 342 345 346 343 340 339 338 341 343 343 342 340 338 337 337 337 337 337 338 337 337 338 338 338 337 338 337 337 338 340 340 341 340 340 340 339 339 339 339 339 339 337 337 335 334 333 332 331 331 331 331 331 331 328 331 330 331 330 330 329 329 329 330 337 331 332 332 331 331 330 330 330 331 331 330 329
336 335 336 336 336 340 344 342 337 339 341 342 342 341 341 339 340 343 342 341 339 338 336 336 337 337 337 337 337 337 338 338 338 337 340 339 337 339 341 340 340 339 339 339 338 338 338 338 338 337 336 336 336 334 333 332 332 332 331 330 330 328 328 326 331 330 328 328 329 330 331 332 336 332 331 332 332 331 331 331 330 330 330 332 329
335 336 335 336 338 336 340 342 340 333 335 337 338 339 341 341 342 343 343 342 341 338 336 336 338 337 337 337 339 338 339 339 339 339 340 336 336 339 339 336 337 338 338 338 338 338 338 337 337 336 336 336 335 334 333 332 331 330 330 329 328 328 326 324 330 329 328 329 330 329 329 330 334 332 331 332 332 332 331 332 331 330 329 329 330
336 335 335 336 337 337 335 340 343 342 344 339 333 336 339 341 340 342 343 343 343 344 343 342 340 340 340 340 340 339 338 338 338 338 338 338 337 337 339 337 338 338 337 337 337 337 337 337 336 336 335 335 334 333 332 331 330 330 328 327 326 326 327 323 329 329 328 331 328 330 328 330 335 333 332 332 333 331 331 331 331 330 330 330 329
335 333 335 335 335 336 335 339 340 340 342 341 341 341 333 337 338 340 340 341 340 339 340 338 338 338 339 338 336 334 333 333 334 335 336 336 335 333 336 338 336 335 336 336 337 336 335 335 334 334 334 334 333 332 331 331 329 329 328 327 324 324 320 325 329 329 329 328 328 328 327 332 334 335 336 335 335 335 332 331 330 330 330 330 330
333 334 333 334 336 335 334 335 338 339 339 341 341 340 333 331 335 336 337 337 337 336 335 334 333 334 333 332 331 333 331 333 329 333 331 333 331 332 332 335 335 335 335 335 336 335 334 333 332 332 332 332 331 330 330 330 328 328 325 324 324 320 330 330 329 329 328 328 329 328 329 332 334 336 336 336 336 334 332 331 330 330 330 331 330
332 333 333 332 335 334 333 334 337 338 338 340 341 340 339 329 331 330 331 333 334 333 331 326 325 325 328 326 329 333 334 334 336 334 329 334 324 326 331 336 335 334 334 334 335 335 333 332 331 331 330 329 327 326 327 328 328 326 323 322 318 330 331 330 329 328 329 329 329 328 331 331 332 335 336 336 336 335 335 333 332 331 331 331 331
329 332 333 333 334 334 334 333 335 336 338 339 341 341 338 334 337 338 339 334 330 329 335 338 337 337 327 333 336 334 333 334 333 335 334 333 332 323 329 333 335 335 335 333 334 334 333 332 331 331 329 328 324 330 327 323 324 325 324 319 330 331 330 330 330 329 330 328 329 328 330 331 332 334 334 335 335 335 334 334 334 334 334 334 334
328 329 330 331 334 334 333 333 333 335 337 337 339 339 338 337 337 334 335 331 336 336 336 336 337 336 336 335 333 334 334 334 334 336 335 324 330 324 328 330 332 332 334 334 333 333 331 331 329 329 329 326 329 334 331 332 330 320 319 328 330 329 330 329 329 329 330 328 330 327 329 331 332 333 333 334 335 334 334 334 334 334 334 334 333
329 329 329 331 332 333 333 333 333 334 335 336 337 336 336 336 333 335 334 333 334 336 335 336 335 336 336 335 333 335 335 335 330 331 333 334 329 320 319 322 324 325 327 330 328 330 329 328 327 325 326 330 332 330 330 331 331 331 331 330 330 329 330 329 329 329 329 330 330 326 328 329 331 332 333 333 334 334 333 334 334 334 333 334 333
331 331 330 330 331 332 333 334 334 333 334 333 335 334 335 333 333 334 334 331 334 333 334 335 334 335 334 334 334 335 335 335 332 331 333 332 331 332 332 332 332 333 323 333 332 333 330 333 330 327 332 331 330 330 330 330 330 330 330 329 329 330 329 330 328 329 330 331 329 324 325 328 330 331 331 333 334 333 334 334 334 334 334 333 335
333 331 330 330 330 331 333 334 334 333 333 333 331 332 334 331 332 333 334 333 335 333 333 333 333 334 334 334 334 334 334 334 334 333 333 333 333 332 332 332 334 333 329 333 331 330 331 330 330 330 328 329 328 329 329 327 328 328 329 331 330 329 329 328 329 329 330 330 330 323 324 327 329 330 330 332 333 333 333 333 333 334 334 335 335
332 332 332 330 330 330 333 334 333 333 333 333 333 333 332 332 333 333 333 332 333 333 332 332 333 334 334 335 333 333 334 333 333 333 332 333 333 333 332 332 333 332 331 332 331 329 329 328 328 327 327 329 330 330 330 330 330 329 330 330 330 329 329 328 328 328 329 329 327 321 325 327 327 328 330 332 332 333 332 332 333 334 334 334 334
332 332 333 332 330 329 332 333 333 333 333 333 333 332 332 333 334 332 332 331 332 332 332 334 335 334 335 335 333 334 333 333 333 332 332 333 333 333 333 332 332 332 332 332 330 327 327 327 327 329 329 330 330 330 330 330 330 331 331 331 330 329 328 328 327 328 328 329 329 322 323 323 324 326 329 330 331 332 332 332 332 334 334 334 334
331 332 333 333 333 331 331 331 331 332 332 333 332 332 332 333 333 333 331 330 331 333 334 334 334 335 335 335 334 333 333 333 332 332 332 332 334 333 332 331 332 332 332 330 331 329 329 329 329 330 330 330 330 330 330 330 331 331 330 330 330 329 328 327 327 327 328 329 329 325 321 321 323 324 326 327 330 331 331 331 333 332 333 333 333
332 333 333 334 334 332 330 330 330 331 332 332 332 332 333 332 333 333 332 331 332 333 334 333 334 335 334 335 335 334 334 332 333 333 332 333 333 332 332 332 331 331 331 331 329 330 330 330 330 330 330 330 330 330 329 330 329 330 330 329 329 328 327 326 326 327 329 329 329 329 317 321 322 323 324 326 327 329 329 330 330 330 330 332 332
333 333 333 334 336 333 331 330 331 332 332 331 332 333 334 333 333 334 334 333 333 333 334 334 333 332 332 335 335 334 334 334 333 333 333 332 332 331 330 332 331 331 331 332 332 331 331 330 330 329 329 330 329 330 329 329 329 329 329 329 329 328 326 328 327 329 328 328 330 330 331 318 321 322 323 324 326 327 327 328 327 327 328 329 330
332 333 334 334 335 335 333 332 331 332 331 331 332 333 333 333 333 333 333 334 333 333 333 332 330 332 333 334 334 334 333 333 334 334 333 331 331 330 331 331 332 332 331 331 331 331 331 331 332 331 330 329 328 328 329 328 327 327 328 328 328 328 327 328 328 328 329 330 329 330 329 327 317 320 321 322 324 325 326 325 324 325 325 326 328
334 335 334 334 334 335 334 333 332 332 331 330 332 332 333 333 333 333 333 334 333 333 332 332 332 332 333 335 334 333 331 331 332 333 332 331 330 330 331 332 332 332 332 332 332 332 331 331 330 331 329 329 328 327 329 328 327 327 327 327 328 327 328 329 329 329 329 330 330 328 328 327 326 316 317 319 320 323 323 323 322 323 324 324 325
333 335 335 334 334 336 336 335 334 333 332 331 331 332 332 333 333 333 333 334 333 332 332 334 333 333 333 334 334 333 331 329 330 331 332 329 330 331 332 332 332 332 332 332 331 331 329 329 329 329 326 327 326 326 325 325 325 326 327 327 328 328 328 329 328 329 330 330 328 327 326 325 325 325 323 316 317 319 321 321 320 320 321 322 323
334 334 334 335 334 334 335 335 335 335 333 332 331 332 332 333 333 333 333 334 333 332 332 333 334 333 333 333 333 333 333 331 329 330 330 328 328 331 332 332 333 333 332 331 331 330 330 329 328 327 327 326 327 326 325 325 325 325 326 327 326 328 329 328 329 330 329 329 327 326 325 324 324 323 325 319 312 314 317 319 317 318 320 321 322
333 334 334 334 333 334 335 335 335 335 335 333 333 333 333 333 333 329 333 334 332 332 332 333 333 333 333 333 334 334 334 332 331 331 329 328 328 330 331 332 333 333 332 331 330 329 328 329 328 328 326 326 325 325 326 325 326 325 326 326 327 327 327 327 328 328 328 328 326 325 324 323 322 322 320 322 320 314 315 317 316 315 318 320 320
334 334 333 334 334 333 333 334 334 335 334 334 335 334 334 333 333 333 333 334 333 332 333 333 333 333 333 332 334 334 334 333 332 332 329 329 329 330 331 333 333 332 331 330 329 329 328 328 328 329 329 326 325 326 326 325 326 325 326 326 327 327 327 327 327 327 327 327 324 324 323 322 322 317 320 320 321 320 313 314 315 314 314 316 317
334 334 334 334 333 334 333 334 334 334 335 335 334 334 335 335 334 334 332 333 334 333 333 334 334 333 333 332 334 334 333 333 333 333 330 330 331 332 332 333 333 332 331 330 329 329 329 328 326 328 328 326 325 325 324 324 326 326 325 325 326 326 327 327 327 322 326 324 324 323 323 322 321 321 319 320 320 319 318 315 312 312 311 313 314
333 333 334 334 334 333 333 333 333 333 334 334 335 335 335 335 335 335 334 334 334 334 334 334 334 334 334 334 334 334 333 333 334 333 331 330 330 332 332 333 332 332 330 329 329 329 328 328 327 326 327 328 326 326 325 326 325 325 325 324 325 326 326 326 325 325 325 324 322 322 324 322 321 320 318 319 316 316 314 314 314 313 310 311 311
333 333 333 334 333 333 333 333 333 333 334 334 334 334 334 332 332 333 332 332 333 332 334 334 335 334 334 333 334 334 334 333 334 334 333 331 331 331 332 333 333 332 330 329 328 328 328 328 327 327 326 326 327 326 326 325 324 324 322 324 325 325 325 324 324 324 323 323 322 323 321 321 320 318 316 315 314 316 314 314 311 312 312 310 311
333 332 332 333 333 332 332 331 332 333 332 332 332 332 331 332 332 331 330 332 333 333 333 334 334 335 334 334 333 334 336 335 335 335 334 330 332 333 333 333 334 332 330 329 330 329 329 329 328 328 326 324 325 327 326 326 322 321 322 323 323 324 322 323 322 322 322 322 322 322 321 320 318 316 314 314 314 313 313 312 311 311 311 312 309
331 332 331 332 332 332 331 331 332 332 331 330 331 331 332 332 331 331 331 332 332 332 332 333 334 335 335 334 333 334 335 337 335 335 335 334 333 333 333 333 332 332 331 331 331 327 330 329 329 327 327 325 323 326 326 324 320 318 318 319 322 321 321 321 321 320 321 322 323 321 321 316 314 315 315 311 311 311 311 311 311 310 311 311 310
331 330 331 331 331 331 331 332 332 332 331 330 330 330 332 333 333 332 332 332 334 335 334 334 334 334 334 335 334 333 334 336 337 335 335 335 335 334 334 333 333 332 330 330 330 329 329 329 329 326 325 326 324 327 325 324 319 321 321 317 315 315 316 318 321 320 320 320 321 320 318 315 312 316 314 311 310 309 310 310 310 310 310 310 309
329 329 330 330 331 331 331 332 332 332 332 331 329 332 332 334 334 334 335 334 333 334 335 335 334 333 332 334 334 334 334 335 336 336 335 335 335 335 334 334 333 333 332 329 329 329 329 328 328 327 326 322 322 323 325 325 323 320 313 314 316 315 310 312 314 318 320 319 319 318 315 311 311 314 311 309 308 307 308 309 309 309 309 308 307
328 329 329 329 330 330 332 332 332 332 332 331 331 332 332 332 333 333 334 334 334 333 333 332 333 332 332 333 333 334 334 335 335 336 334 334 335 335 334 334 333 334 332 330 329 329 330 329 329 328 326 323 322 323 323 325 324 325 320 315 313 311 310 313 315 314 317 317 317 317 311 313 309 308 306 307 308 306 307 308 308 308 308 307 306
327 329 330 330 330 330 332 333 333 332 332 333 332 332 330 330 329 329 327 328 328 329 328 329 330 331 331 333 334 334 334 334 335 335 335 332 334 335 335 334 333 333 332 331 331 331 330 329 329 328 327 327 324 324 321 322 323 324 324 322 320 316 314 314 314 308 315 318 317 315 310 311 311 307 306 306 307 305 306 307 307 306 306 305 303
326 329 330 330 331 331 332 332 332 332 334 334 334 331 331 330 330 328 329 328 327 329 331 332 332 332 333 333 333 334 334 333 334 335 335 334 333 334 334 334 334 333 332 331 330 330 329 329 329 328 327 327 327 323 322 319 318 319 322 323 321 320 320 316 312 313 308 314 316 309 307 312 309 308 305 304 305 304 305 306 307 305 304 304 302
324 327 329 330 330 330 331 331 332 331 333 334 334 333 331 331 330 330 329 329 328 329 330 332 333 332 331 332 333 333 334 334 334 334 334 333 332 333 334 334 334 333 331 331 331 331 330 331 330 330 329 327 326 324 323 321 316 316 318 318 318 319 319 320 317 314 311 308 309 313 311 308 308 305 303 303 302 304 303 305 306 305 302 302 302
321 323 326 328 330 330 331 331 331 331 332 333 333 333 331 331 330 330 329 329 330 330 331 331 330 332 331 332 332 332 333 333 333 333 333 333 331 331 332 333 333 333 331 332 332 332 330 329 329 328 327 327 327 326 324 320 319 318 315 316 316 316 317 317 317 316 310 307 308 306 305 308 307 302 301 303 303 304 303 304 304 304 302 302 302
317 321 323 325 327 329 329 329 330 331 332 332 332 333 333 330 330 330 329 329 329 329 330 329 329 330 329 330 331 331 331 331 332 332 332 332 333 331 331 332 332 333 329 332 332 331 330 329 329 329 328 327 327 326 324 323 321 321 318 317 315 314 313 313 313 312 311 311 307 306 305 302 299 298 301 300 302 301 303 305 304 304 303 301 300
316 317 319 321 323 324 326 327 329 330 331 331 332 332 332 331 329 329 329 329 329 328 327 327 328 328 327 327 329 330 331 330 331 331 331 332 332 331 331 332 332 332 330 331 331 331 330 329 328 329 327 326 325 324 323 323 322 321 319 318 317 314 312 310 310 311 310 307 306 307 304 302 303 298 300 301 301 302 303 304 302 301 301 300 299
Wind_Speed
7 9 8 7 6 8 9 10 9 10 8 12 13 13 13 13 13 13 12 12 13 13 13 13 12 12 11 15 13 12 10 12 14 13 13 14 15 15 15 16 16 15 16 16 16 17 18 17 17 18 19 20 19 20 19 20 19 19 19 18 18 18 17 17 16 16 17 18 20 20 20 19 19 19 20 20 19 20 18 19 15 12 12 14 18
9 8 8 8 9 8 9 10 10 11 11 12 13 13 13 13 12 12 13 12 11 12 13 11 13 13 13 13 13 11 10 11 12 13 13 14 13 13 13 14 15 16 16 16 16 16 16 17 17 18 19 19 19 20 20 20 19 18 18 18 18 17 17 16 15 13 12 15 17 20 21 21 19 19 20 20 19 19 17 17 17 12 10 16 17
10 9 10 9 10 9 10 10 11 12 12 12 12 12 12 12 12 11 11 13 14 13 12 12 13 12 12 12 12 12 11 13 13 14 15 16 16 16 17 16 15 15 16 16 16 16 16 17 18 19 19 19 19 19 19 19 18 17 17 17 16 16 15 15 14 12 11 8 13 16 18 20 21 20 21 20 18 18 17 17 17 15 11 17 16
10 8 11 9 9 10 11 11 10 12 12 12 12 12 12 12 12 11 11 13 14 13 13 13 13 13 13 13 12 11 13 12 12 14 14 15 16 15 13 14 14 15 15 16 16 16 17 18 19 19 19 18 18 18 18 17 17 17 16 16 15 15 14 13 12 12 10 10 7 11 9 11 14 20 19 18 18 18 17 17 17 17 17 16 17
9 9 9 9 10 10 10 11 11 11 12 11 11 11 11 10 11 12 12 14 12 13 14 12 13 13 12 12 12 11 11 12 12 13 13 13 13 13 14 13 13 14 15 16 17 17 18 19 19 18 18 18 17 17 17 16 16 16 15 15 14 14 14 13 11 9 8 7 8 11 10 11 10 17 17 18 17 16 17 16 16 16 15 13 15
9 9 10 10 9 10 7 10 11 11 11 11 10 11 11 11 10 11 12 11 11 12 11 12 12 11 11 12 12 12 12 11 10 13 14 15 14 13 13 13 14 15 16 16 16 18 19 19 19 18 18 17 17 16 16 15 15 15 15 14 14 14 13 12 11 9 7 3 9 8 10 11 11 10 17 16 16 15 17 17 16 15 14 19 19
10 8 9 9 8 9 6 9 11 11 11 10 10 9 10 10 11 11 12 11 12 10 12 13 11 12 12 11 11 11 12 11 11 13 13 14 13 13 14 13 13 15 16 16 16 18 18 18 17 18 18 17 16 16 15 15 15 14 14 14 13 12 11 10 10 9 9 9 7 8 8 11 11 8 17 16 15 16 16 15 16 15 16 17 16
8 6 7 9 9 11 8 10 11 11 11 10 9 8 11 11 12 12 12 10 12 12 12 11 12 12 11 11 12 12 11 11 10 11 14 13 13 12 15 14 14 14 16 16 17 18 17 17 17 17 17 16 16 16 15 15 14 14 13 13 12 11 10 9 8 6 13 9 8 8 9 10 11 9 14 15 16 15 13 14 15 14 14 16 12
8 8 8 8 11 12 6 10 11 11 11 10 9 8 12 12 12 12 11 10 11 10 10 11 10 9 13 12 13 13 11 12 12 11 12 12 12 13 14 15 14 14 15 16 17 17 16 16 16 16 16 16 15 15 15 14 14 13 12 11 11 10 10 11 11 6 10 9 10 9 9 10 10 9 11 14 15 14 14 13 13 12 15 13 10
9 8 7 7 9 11 9 9 12 11 10 9 7 9 12 11 10 10 11 10 10 10 10 10 11 10 11 11 12 11 11 12 12 11 12 12 12 13 13 13 13 14 15 15 15 16 15 14 15 15 15 15 14 14 14 14 13 13 12 11 10 10 10 10 6 11 8 8 10 11 10 11 9 9 11 14 14 14 12 10 10 15 14 12 14
9 8 7 8 10 7 8 9 9 9 9 8 7 10 11 10 9 9 9 10 10 10 11 10 11 10 10 11 11 11 11 11 11 10 11 12 11 13 13 13 14 14 15 15 15 15 15 15 14 15 14 14 14 13 13 13 13 12 11 11 10 10 11 11 7 8 9 10 10 9 10 12 9 8 12 13 14 14 9 12 12 13 13 12 15
9 8 7 9 9 6 6 6 8 10 8 9 8 9 11 10 9 9 9 10 9 9 11 11 11 11 11 12 11 11 11 10 10 10 10 11 12 13 12 12 13 14 14 14 14 14 14 14 14 14 14 13 13 13 13 12 12 11 11 10 9 9 10 9 7 7 7 9 9 9 10 11 10 9 12 12 14 12 11 12 12 12 11 12 13
9 8 8 9 9 7 7 7 6 6 8 8 8 7 7 8 7 9 11 11 9 9 11 11 11 11 11 11 11 11 11 11 11 10 10 12 11 12 12 12 12 12 13 13 13 13 13 13 13 13 13 12 12 12 12 12 11 11 10 9 8 9 10 11 8 8 7 8 8 9 9 8 9 11 11 11 11 11 11 11 9 7 9 12 12
9 8 9 9 8 8 7 7 6 5 4 6 8 8 8 7 6 7 13 11 10 9 8 9 9 10 10 10 10 9 9 9 9 9 8 9 11 12 12 12 12 12 12 12 12 12 12 12 12 12 11 11 11 11 11 11 10 10 9 9 9 7 9 4 8 7 7 7 8 9 8 8 7 10 11 10 10 10 9 10 10 17 14 12 12
9 9 9 9 9 9 8 7 6 4 5 4 5 8 8 8 8 10 12 12 10 9 8 9 9 9 9 9 9 9 10 10 9 9 9 8 9 11 12 12 12 12 12 12 12 12 11 11 11 11 10 10 10 10 10 10 10 9 9 9 9 10 12 5 5 6 6 6 7 7 7 7 13 9 10 11 10 9 9 10 10 12 11 11 11
9 8 9 9 9 9 9 7 7 6 6 5 5 8 7 8 7 9 10 10 11 10 8 9 10 9 9 10 10 10 10 9 8 7 6 6 8 11 12 11 11 11 11 11 11 11 11 11 11 10 10 10 10 10 9 9 9 9 9 9 9 10 11 9 6 6 6 6 5 5 8 7 15 9 7 10 11 10 9 10 10 9 9 15 10
8 8 8 9 9 9 9 9 8 8 6 7 7 7 8 7 7 9 9 7 8 10 8 9 11 9 9 10 11 10 10 10 10 10 8 7 7 6 7 10 11 11 11 10 11 10 11 11 10 10 10 9 10 9 9 9 8 8 7 7 8 8 9 10 6 6 5 4 5 6 7 6 12 8 7 7 9 9 10 11 10 10 9 9 9
8 8 8 9 8 8 8 9 9 9 9 7 7 8 8 8 9 9 10 10 10 8 6 6 9 9 9 9 10 10 10 10 10 9 8 7 6 5 6 10 11 10 10 10 10 10 10 10 10 10 10 10 10 9 9 7 7 7 6 6 5 6 8 10 5 4 4 4 5 7 6 8 12 8 6 5 8 7 9 10 10 10 10 9 8
7 7 8 9 8 8 8 8 8 8 10 9 8 7 9 9 10 10 10 9 8 8 8 10 10 10 10 10 9 9 9 9 8 8 8 7 6 7 6 7 9 9 9 9 9 10 10 9 9 9 9 9 9 9 8 8 6 5 5 4 4 7 7 6 5 4 6 5 6 7 6 9 11 9 10 10 10 9 8 10 9 10 10 10 9
6 6 7 7 8 7 7 7 8 8 8 9 9 9 8 10 10 9 9 9 9 9 9 9 10 10 10 10 9 8 7 7 8 8 8 9 9 8 8 8 8 8 8 8 9 9 9 9 8 8 8 8 8 7 7 6 6 4 3 4 7 7 5 3 3 5 4 3 5 6 8 10 12 11 10 11 11 9 8 9 8 8 9 9 9
4 6 6 7 8 8 8 7 8 9 8 8 8 9 8 10 8 8 9 9 10 9 10 9 8 8 9 9 9 7 7 6 6 6 6 6 6 8 8 7 6 6 7 7 8 9 8 7 7 6 6 5 6 7 5 4 3 1 2 7 7 5 4 2 4 4 4 4 6 6 8 10 11 12 12 10 11 10 11 8 8 8 8 8 8
6 5 6 7 8 8 8 7 7 9 8 7 6 7 7 8 9 7 7 7 7 9 8 8 8 7 7 8 7 6 6 6 6 6 6 7 6 6 7 7 7 6 6 6 8 8 7 6 5 4 3 2 4 4 5 3 3 2 5 8 6 4 3 4 3 4 3 3 5 6 7 9 10 10 10 12 11 11 10 10 11 11 11 12 12
7 6 6 8 7 7 9 8 8 9 8 8 6 7 9 7 8 7 6 8 8 8 7 8 8 8 7 7 6 5 6 6 4 4 5 8 8 7 7 7 7 7 7 8 6 6 5 5 3 2 3 5 4 4 3 3 5 6 6 7 2 3 3 3 3 3 3 3 4 7 5 8 9 9 9 10 11 11 11 11 11 12 12 12 12
8 7 7 6 8 7 9 8 9 9 8 7 7 6 7 7 7 6 6 7 8 7 8 8 8 8 7 7 6 6 5 5 7 8 7 6 4 5 6 7 7 6 7 5 5 4 4 3 2 3 5 5 3 1 1 1 1 1 1 3 2 3 2 3 2 3 3 2 4 5 3 5 7 8 9 10 11 11 12 12 12 12 12 12 12
7 7 6 8 9 8 9 9 9 9 9 8 7 7 7 7 6 6 5 6 7 8 8 8 8 8 8 7 6 6 5 6 6 5 6 6 6 5 5 5 5 5 4 4 4 4 4 4 4 4 4 1 0 0 1 2 0 1 1 2 3 2 3 3 3 3 2 3 5 6 2 4 5 7 8 9 10 10 12 12 13 13 12 12 12
8 8 8 8 9 9 9 8 9 10 10 8 8 8 8 7 6 6 5 5 7 8 8 8 8 8 8 7 6 6 6 5 6 6 5 5 6 6 6 5 5 5 5 4 3 3 3 3 3 3 1 1 1 0 1 1 1 2 2 1 2 3 2 2 2 2 4 3 5 7 2 3 6 7 8 9 10 11 11 12 13 13 13 13 13
8 9 9 8 10 10 9 9 9 9 11 9 8 7 8 7 6 6 6 6 6 7 7 7 8 9 8 7 6 7 6 5 5 5 4 4 5 4 4 4 4 4 5 3 3 3 3 3 2 2 1 0 1 0 1 0 1 2 3 2 2 4 3 3 3 3 4 4 2 8 4 3 5 6 7 9 10 11 11 12 13 13 14 14 14
8 9 9 8 9 12 11 10 9 9 9 9 8 7 7 7 6 7 6 6 6 6 7 7 7 8 9 8 8 7 6 6 5 5 5 4 4 4 4 3 3 3 3 2 3 3 3 2 2 1 2 3 2 2 2 2 2 1 3 3 3 4 4 3 4 4 4 3 2 6 5 3 4 6 7 8 9 10 11 11 12 13 14 14 14
11 10 9 9 10 11 12 12 10 11 9 9 8 7 7 7 6 6 7 6 6 6 6 7 7 7 8 8 8 6 6 6 6 5 5 5 4 4 3 4 3 3 3 3 3 3 3 2 3 4 3 2 2 2 1 2 2 3 3 3 4 5 4 4 3 4 3 3 5 5 6 4 4 5 7 8 9 10 10 11 12 13 14 14 14
12 11 10 9 9 11 12 13 12 11 9 9 8 7 7 7 7 7 6 7 6 6 6 6 6 7 7 8 7 6 5 6 6 6 6 5 4 4 4 3 4 3 3 3 3 3 4 3 2 2 2 3 3 2 2 4 3 3 3 3 3 4 3 2 3 2 3 3 4 3 6 7 5 4 6 7 9 10 10 11 13 14 15 15 15
12 13 12 10 9 11 11 12 11 10 9 9 8 8 7 7 7 6 6 7 7 6 6 6 6 6 6 7 7 7 5 5 5 6 6 5 5 5 5 4 3 3 3 3 3 3 3 3 2 3 3 3 3 3 3 4 4 4 3 3 3 3 3 2 2 2 3 3 3 3 5 8 7 4 7 8 10 10 12 13 14 14 14 14 14
13 13 11 11 11 12 11 12 12 11 10 10 9 8 8 7 7 6 7 6 7 6 6 6 6 6 6 6 7 7 7 5 5 6 6 6 5 5 5 4 4 4 3 3 3 3 3 2 1 2 3 4 4 4 3 3 4 4 3 3 2 2 2 2 2 2 2 2 3 2 3 4 8 7 6 9 10 11 12 14 14 14 13 13 13
11 13 13 12 13 12 11 11 12 12 12 11 9 8 7 7 7 7 6 6 7 7 6 6 6 6 6 6 7 8 7 6 6 6 6 5 5 5 5 5 4 4 4 4 4 3 3 3 4 3 4 4 3 4 4 4 4 3 2 1 2 2 2 2 2 2 2 2 2 2 2 2 4 8 9 8 10 12 13 14 14 14 13 13 13
11 10 13 14 12 10 9 9 10 11 12 11 9 9 8 7 7 7 7 7 6 6 6 6 6 6 6 7 7 7 7 7 6 6 6 6 5 5 5 5 5 4 4 4 4 4 4 4 4 4 4 4 4 3 3 4 3 3 2 2 2 2 2 2 2 2 2 2 2 2 1 2 2 3 6 9 11 11 13 13 14 13 13 13 13
11 11 14 14 14 12 10 10 10 12 11 11 10 9 9 8 8 7 7 7 7 7 6 6 6 6 6 7 8 7 8 7 7 6 7 6 6 6 6 5 5 4 4 4 5 5 4 5 5 5 5 4 4 4 4 4 4 4 4 3 3 2 3 3 2 1 1 1 0 2 2 2 2 3 2 6 9 12 10 11 13 13 13 14 14
14 12 12 13 14 14 12 12 12 14 12 11 10 9 9 9 8 7 7 8 7 7 6 6 6 6 6 6 8 8 8 8 8 7 6 7 6 6 6 6 6 5 5 5 5 5 5 5 5 5 5 5 5 4 3 4 4 4 3 3 3 3 4 4 2 1 2 1 2 2 3 3 3 3 2 3 4 7 10 7 11 14 14 14 15
14 13 13 13 13 15 13 14 14 15 14 13 12 10 9 8 8 8 8 8 7 7 6 6 7 6 7 7 8 8 8 8 8 8 7 7 7 6 6 6 6 6 6 5 4 5 5 3 4 4 5 5 5 5 5 4 4 4 4 4 3 3 4 3 1 1 2 1 3 3 4 3 3 1 3 3 2 4 7 8 9 12 13 14 16
14 14 14 13 14 13 14 14 14 14 13 13 13 12 10 9 8 8 8 8 8 7 7 6 7 6 7 7 7 8 8 8 8 8 7 7 7 7 6 7 6 6 6 5 6 6 5 5 5 4 4 4 4 5 5 4 3 3 4 4 4 4 3 2 1 1 2 2 2 3 3 3 3 3 3 3 2 3 2 7 12 14 12 13 16
12 15 14 14 13 13 13 14 13 14 13 13 12 12 12 11 10 10 10 10 9 9 7 7 7 7 7 7 7 7 8 9 9 9 8 7 7 7 6 6 7 7 7 6 6 6 6 6 6 5 4 4 4 4 5 4 3 3 4 5 2 3 2 2 1 2 2 2 3 3 2 2 3 3 3 2 3 2 2 2 3 5 7 12 15
12 13 15 14 14 14 13 13 14 15 13 13 12 12 11 11 10 9 10 10 10 8 9 9 9 8 8 8 9 7 8 8 9 9 9 8 8 7 7 7 8 8 8 8 7 7 7 7 7 6 6 5 4 5 4 4 4 5 5 4 2 2 1 1 2 2 3 3 3 3 2 2 2 3 2 2 3 2 2 2 2 3 6 9 13
13 14 15 16 16 14 13 15 14 15 14 13 12 12 12 11 10 11 10 11 9 9 9 10 9 8 7 9 10 8 8 9 9 9 9 9 8 8 8 8 8 8 8 9 8 8 8 7 7 6 6 6 5 5 4 2 4 5 5 3 4 4 4 4 4 3 3 2 2 2 2 2 2 2 2 2 2 2 2 3 3 3 3 5 8
14 15 16 17 16 16 16 14 13 15 15 15 14 14 13 12 11 11 11 11 10 10 10 10 10 9 8 9 10 10 10 9 9 9 10 10 9 9 9 9 10 9 9 9 9 8 8 7 6 7 6 7 6 4 3 4 4 5 4 3 2 5 3 5 4 3 2 1 1 2 2 3 2 1 2 3 3 3 3 3 3 3 3 3 4
14 16 16 15 16 15 15 14 13 14 15 16 14 14 14 14 14 12 13 10 10 10 11 12 9 11 10 10 9 11 11 11 11 9 10 11 10 10 10 10 11 8 8 9 9 10 9 9 10 8 6 6 5 3 5 5 4 2 2 1 4 4 3 4 4 5 5 3 3 2 2 3 3 1 2 2 2 3 3 3 4 4 3 3 3
13 14 14 16 14 14 15 15 15 14 13 15 13 14 14 13 14 13 12 12 10 10 12 11 11 12 11 10 9 11 12 11 12 12 11 11 11 11 11 11 10 9 8 9 8 9 10 8 8 8 6 7 6 5 5 6 5 5 2 4 4 3 4 6 6 4 6 4 2 2 2 3 2 2 2 2 2 3 4 3 4 4 3 3 3
14 14 14 14 12 17 17 17 15 15 14 14 14 13 12 13 13 12 11 12 11 11 11 11 11 12 11 11 13 11 12 12 12 12 10 12 11 11 11 10 10 9 9 10 8 9 9 8 9 8 9 8 8 6 7 6 6 5 4 4 4 4 2 5 4 4 6 5 3 1 3 1 2 2 3 2 2 3 4 4 4 3 3 3 3
13 14 14 14 14 13 14 15 13 13 14 15 15 14 13 13 14 13 13 13 14 13 15 15 13 13 13 10 14 14 13 13 13 13 11 9 11 10 8 8 9 8 8 9 8 8 9 10 9 9 9 9 8 6 6 4 6 6 7 6 3 2 2 2 2 3 2 2 4 3 2 2 2 2 2 3 3 3 3 4 4 4 3 3 3
13 10 11 13 14 12 13 14 13 12 12 13 15 13 13 13 15 15 13 14 15 13 12 11 13 12 10 12 13 13 14 14 14 13 13 10 8 10 8 9 9 9 9 9 10 10 9 8 7 8 8 7 7 7 7 5 4 4 5 6 3 2 3 3 3 1 5 3 3 3 2 1 2 2 3 3 3 3 3 4 4 4 3 2 2
11 10 11 12 14 15 13 13 12 11 11 11 14 14 13 13 14 14 13 13 14 13 13 13 13 12 13 14 13 13 14 14 12 12 11 9 10 10 10 9 9 8 8 9 11 11 8 7 8 9 8 8 8 8 8 7 7 5 5 5 5 3 2 3 4 3 2 3 5 2 2 3 2 2 3 3 3 3 4 3 3 4 3 2 2
9 10 10 10 11 12 13 13 13 13 12 13 12 15 14 13 13 12 13 12 12 11 9 9 10 10 14 12 13 12 11 12 12 10 10 10 11 11 12 11 10 9 7 6 8 8 7 8 8 8 8 8 8 8 7 6 7 6 6 5 5 5 4 4 4 2 3 3 6 7 5 3 2 3 3 2 3 3 3 4 3 3 3 2 2
7 7 7 7 8 9 12 13 14 12 11 13 14 15 15 12 13 13 14 12 10 10 10 11 12 11 14 15 12 11 11 9 11 12 10 12 11 11 11 11 11 10 8 10 10 9 9 9 9 10 9 8 5 5 7 6 7 7 7 7 6 5 4 5 5 5 4 5 3 6 7 7 7 4 4 3 3 3 3 4 4 2 2 2 2
5 7 7 8 8 9 11 13 14 11 11 13 13 15 14 13 13 14 14 13 12 11 10 11 11 13 14 14 13 11 12 11 11 11 14 14 13 11 11 11 10 9 8 9 8 9 9 9 9 8 8 8 8 9 8 7 7 6 8 8 9 9 8 7 7 6 5 5 4 2 3 3 2 4 3 3 2 3 3 3 3 2 2 2 2
Wind_Direction
111 125 113 87 92 107 119 114 123 121 122 108 100 95 91 91 92 94 92 82 79 81 79 78 82 85 78 73 69 68 74 75 73 74 75 73 71 71 73 74 74 75 76 75 77 77 77 78 75 74 72 69 66 65 64 63 62 60 60 59 58 59 58 55 55 62 63 63 62 58 57 56 57 58 56 52 49 45 38 35 41 50 47 46 44
132 129 126 100 102 114 115 120 120 116 115 109 101 96 93 92 94 98 95 93 94 81 77 82 80 72 76 75 76 77 75 81 80 73 68 67 69 75 78 80 80 79 78 77 78 79 79 77 76 75 71 68 67 67 67 65 63 60 59 58 58 57 54 49 46 45 62 77 76 70 59 55 54 57 58 54 51 48 45 44 44 48 48 50 50
128 139 114 99 104 115 119 120 117 114 115 107 99 98 99 96 97 97 100 100 90 94 95 88 90 92 90 85 84 90 86 79 77 76 76 76 73 71 75 75 73 74 79 78 75 78 81 78 76 72 70 70 69 67 65 64 62 60 59 58 58 55 51 47 40 34 34 56 97 87 71 59 54 55 55 53 50 50 46 48 49 50 47 47 51
130 131 121 102 113 120 125 121 115 108 105 106 104 103 107 108 101 95 96 96 95 95 95 92 85 84 81 81 82 77 73 79 82 84 83 82 79 78 81 85 91 93 88 81 79 80 82 81 78 75 72 71 70 68 65 64 63 61 61 59 58 54 50 45 34 25 11 13 24 61 60 60 52 50 55 54 52 52 49 47 46 48 48 46 49
128 130 132 132 126 125 126 121 113 112 110 109 109 111 106 105 107 106 102 102 102 96 94 93 95 92 89 93 95 89 86 82 84 88 92 90 92 95 90 89 85 84 81 84 85 83 82 81 78 75 74 72 69 68 66 65 64 64 63 61 58 55 49 41 29 12 354 4 41 60 59 60 57 47 55 57 57 53 48 47 46 48 51 52 48
125 129 149 130 125 128 124 116 113 111 109 109 111 110 105 105 106 102 101 99 97 98 100 99 95 93 92 88 85 85 89 88 87 85 78 81 79 74 82 90 94 88 78 77 82 83 79 79 78 77 75 73 70 67 66 64 64 64 63 61 57 52 45 30 17 4 345 10 61 65 65 63 55 51 52 54 57 61 52 50 51 48 45 40 47
125 137 150 134 126 127 130 120 113 112 112 112 114 115 108 97 100 105 98 103 108 104 100 96 97 98 96 98 100 101 90 91 98 93 87 85 87 88 83 76 72 91 88 82 82 81 79 78 78 78 76 73 69 66 64 64 63 62 61 59 54 46 34 20 358 347 24 48 53 65 65 61 60 53 49 47 47 56 57 61 57 49 40 40 41
124 134 136 132 129 129 142 122 116 115 116 116 118 121 115 106 100 108 103 104 103 103 102 97 102 99 104 103 98 94 101 106 97 94 92 91 88 89 88 91 91 87 91 88 81 79 80 78 77 77 75 71 68 66 64 63 63 62 60 57 52 41 25 11 12 342 50 52 44 47 60 61 64 60 50 50 48 46 48 46 67 56 51 49 38
135 138 135 137 118 124 143 127 122 121 121 119 118 125 117 112 114 112 110 107 103 102 105 109 99 105 100 94 99 102 102 101 106 103 92 85 91 91 95 98 96 93 89 87 85 83 80 79 79 77 74 72 69 66 64 63 63 61 60 57 46 28 9 356 349 29 70 65 57 47 56 70 63 63 60 64 56 51 34 23 47 59 59 56 45
135 137 137 137 129 124 143 138 131 128 127 125 128 130 120 122 119 116 120 118 109 108 108 101 107 106 93 98 97 104 104 105 103 102 100 96 88 86 82 92 95 94 92 91 89 87 85 84 83 80 76 74 71 68 66 65 63 60 58 54 41 24 3 354 322 45 53 66 73 66 52 53 69 65 48 55 64 56 34 15 51 36 44 45 40
138 136 138 129 123 118 126 137 134 132 131 127 135 133 125 121 121 119 117 116 116 113 106 109 112 107 102 101 105 102 100 99 104 105 101 96 95 91 89 85 83 88 90 91 89 88 87 87 85 82 79 76 73 70 67 65 62 59 56 50 39 21 360 346 32 57 58 56 56 60 59 56 57 51 55 48 59 60 47 34 42 52 46 36 34
136 134 132 117 103 84 102 109 130 138 133 131 127 134 134 122 128 131 126 116 120 117 111 114 118 116 113 109 105 109 112 113 111 114 113 111 105 101 98 98 98 91 88 88 87 89 91 89 87 85 81 79 75 72 70 66 63 60 55 47 38 23 4 347 53 56 58 68 67 68 61 54 55 52 48 48 52 58 54 55 55 52 49 40 33
135 139 125 129 133 81 109 121 118 133 139 133 126 114 108 120 120 137 128 121 118 109 118 115 117 121 119 117 120 124 115 113 115 116 115 110 111 108 101 95 93 92 92 90 90 90 92 91 89 85 83 81 77 74 71 68 65 60 52 42 20 1 353 351 61 63 54 52 67 65 71 69 63 58 58 57 56 56 54 50 46 71 75 47 36
140 136 134 140 123 100 96 106 124 125 103 126 136 119 113 96 89 107 122 124 113 110 111 117 113 118 104 107 109 106 111 110 109 110 113 118 112 108 104 101 96 91 90 88 88 90 92 93 90 87 83 81 79 76 71 69 65 57 45 30 17 353 349 291 67 61 62 66 63 68 67 60 53 63 57 57 58 55 54 47 28 13 54 46 44
137 142 140 136 138 139 102 105 114 133 124 89 126 133 123 107 108 122 121 123 122 120 121 123 122 114 115 120 122 119 118 117 119 120 118 113 116 106 100 99 97 96 92 90 89 89 89 91 88 86 84 82 79 77 71 67 63 53 41 23 8 353 354 27 56 70 73 62 75 71 63 64 6 77 54 48 54 53 47 44 28 25 31 64 40
138 142 148 137 144 144 153 112 102 119 111 96 103 134 127 119 117 125 125 126 127 128 130 129 121 121 125 118 115 105 87 85 82 82 86 107 116 112 107 104 100 99 95 95 96 92 91 86 84 84 84 81 80 77 72 66 59 52 39 25 3 2 349 334 65 60 46 36 70 69 59 40 4 50 53 41 43 45 41 38 38 29 8 31 40
143 149 156 143 144 156 148 159 127 109 109 106 101 125 124 117 102 79 79 112 130 126 130 134 124 131 126 117 95 81 82 78 69 56 55 95 92 61 107 110 104 96 93 93 92 92 87 84 82 80 79 79 76 74 72 64 57 50 43 20 8 355 334 326 74 56 54 69 48 69 57 22 352 10 48 31 34 35 33 30 28 26 21 25 28
147 162 158 151 150 158 152 152 145 165 151 124 105 119 121 112 98 94 95 94 93 82 88 100 114 96 83 78 86 82 80 76 67 62 61 59 54 65 78 107 106 100 98 96 93 90 87 83 80 77 77 76 73 72 68 63 55 49 36 22 354 346 303 310 59 64 54 35 58 56 46 8 351 1 38 20 28 29 26 21 21 21 20 16 17
159 173 158 159 155 156 159 154 165 170 159 166 157 122 123 114 106 107 107 101 94 99 98 109 112 109 102 96 93 86 78 77 67 68 62 58 80 76 58 85 99 107 104 99 93 91 89 83 81 77 77 76 75 72 68 62 59 42 29 343 323 285 302 288 47 47 72 12 51 67 34 4 4 14 17 18 16 358 33 11 13 12 13 12 7
170 179 160 169 160 163 160 160 166 172 175 170 164 149 125 115 111 110 113 114 111 108 107 108 114 117 114 115 113 119 113 98 107 91 76 66 53 55 59 81 99 111 114 111 104 99 93 86 82 82 81 81 80 77 69 69 61 41 6 318 273 290 275 45 38 31 58 43 49 56 16 8 2 3 7 20 12 22 29 12 8 357 359 357 355
171 184 169 173 169 166 168 169 165 170 178 167 163 155 128 120 112 112 117 122 122 120 115 115 116 123 133 137 153 155 142 134 156 129 117 78 69 68 64 64 105 116 112 110 107 103 95 89 84 83 84 94 106 106 94 82 76 89 309 274 279 250 40 35 9 45 28 37 68 49 19 0 2 358 354 8 16 12 16 359 346 343 341 341 340
174 181 185 178 175 173 175 176 171 170 175 164 168 151 148 166 162 149 144 134 132 135 145 152 152 149 149 166 177 156 158 161 122 143 134 133 93 82 79 80 67 72 97 114 109 96 96 101 99 96 113 149 197 183 147 135 154 177 239 258 267 43 34 12 4 53 25 43 62 52 18 359 356 356 352 350 358 3 359 353 348 342 340 337 336
178 182 183 187 183 177 179 180 176 180 171 178 168 157 165 187 179 172 164 172 157 171 174 172 182 171 177 192 180 164 161 144 125 86 101 72 92 86 91 89 88 82 77 88 99 95 101 98 110 146 201 219 229 252 88 188 178 202 233 246 27 39 25 356 8 28 55 47 61 54 11 357 351 351 347 346 347 349 346 345 343 340 336 334 334
182 183 178 188 185 185 181 184 176 180 180 180 188 176 179 190 183 175 169 182 176 191 188 181 190 181 187 195 187 150 171 125 96 111 123 145 112 101 101 106 108 104 123 120 119 115 122 138 191 229 231 225 226 274 142 147 340 206 169 1 30 25 3 11 9 8 15 64 80 81 16 359 352 348 347 344 344 344 341 338 342 339 337 336 338
187 178 182 185 188 189 180 186 176 181 184 182 190 185 187 190 187 181 177 180 181 186 188 189 191 184 195 198 185 149 199 134 159 163 183 159 157 167 166 180 176 171 200 196 182 155 207 176 187 215 230 185 238 188 312 340 22 271 48 18 4 27 13 12 19 4 346 27 104 90 26 349 357 353 349 344 343 342 339 340 338 339 340 342 344
180 187 188 182 186 191 182 185 179 181 186 188 188 184 185 193 190 191 184 192 180 187 189 188 190 190 193 204 178 175 203 157 174 181 192 159 178 173 187 187 174 160 197 207 187 168 198 186 190 220 180 234 27 40 347 331 7 312 9 16 359 358 358 11 353 15 346 336 115 106 90 8 352 354 349 345 342 340 339 340 339 340 344 347 350
190 193 182 184 180 189 184 183 182 182 189 196 188 183 192 193 193 187 189 197 184 191 192 190 192 189 193 202 187 183 195 181 179 184 187 179 194 193 191 175 182 181 191 202 169 179 203 185 192 195 197 6 221 93 169 272 342 341 339 339 13 333 331 345 335 340 324 327 120 115 111 43 360 348 349 346 348 344 342 343 342 344 348 350 353
201 193 186 185 179 186 182 183 182 183 186 198 194 187 191 199 193 183 196 189 193 194 196 193 190 189 195 195 199 189 188 186 180 187 193 202 198 195 192 182 189 190 185 202 174 190 194 186 186 137 209 195 220 267 301 284 315 267 305 313 330 320 333 329 324 326 320 314 358 135 117 72 20 352 350 355 355 355 355 354 350 350 354 356 1
204 197 195 195 183 184 182 184 181 185 185 193 197 192 191 197 194 191 192 187 200 197 198 195 196 193 193 200 200 199 189 189 183 185 195 199 197 195 201 199 195 189 181 190 187 185 192 179 186 213 230 289 292 249 313 284 282 312 326 326 319 313 319 327 335 319 314 337 335 134 125 107 56 3 1 3 7 11 10 8 6 6 7 10 10
204 199 196 199 188 184 187 187 184 184 184 188 198 197 191 193 197 196 189 188 202 203 198 195 196 195 192 198 197 209 197 193 186 191 194 192 193 192 206 205 193 201 183 196 187 206 203 193 232 252 240 254 268 302 301 296 287 284 303 321 315 313 316 334 330 331 347 334 338 106 150 116 89 34 16 18 28 29 29 28 26 22 18 17 15
203 201 199 198 194 186 190 188 186 181 183 189 194 199 191 194 195 195 193 189 198 201 201 202 199 198 198 187 197 208 211 204 191 193 192 193 195 193 204 199 201 196 197 210 194 210 232 263 247 256 272 296 303 303 276 290 297 292 286 296 311 311 321 336 321 319 328 353 339 333 128 125 111 82 35 41 44 44 44 38 31 24 21 18 18
205 203 197 196 197 193 190 191 188 181 187 191 190 199 193 195 192 196 195 195 192 200 201 203 200 203 199 186 197 197 212 207 208 195 201 194 197 198 199 199 202 187 193 218 226 203 247 244 201 265 303 293 285 289 291 288 293 296 306 299 286 301 319 317 322 329 334 344 324 327 350 86 128 101 68 55 54 52 47 39 32 28 25 22 21
208 205 199 193 201 198 198 194 191 183 192 193 190 195 194 192 192 195 196 191 195 201 203 201 200 199 196 194 195 199 200 211 202 206 203 205 204 198 201 199 211 220 220 202 239 234 225 237 230 228 257 271 274 282 270 252 259 271 285 279 294 286 296 314 308 299 331 323 318 4 20 56 112 125 107 82 57 55 45 39 38 34 31 30 29
201 203 200 197 196 199 200 202 199 194 192 197 194 192 196 193 192 195 197 188 196 200 206 204 198 198 194 196 197 198 199 204 205 198 203 210 206 201 206 205 213 220 221 191 211 224 242 239 253 258 252 243 264 258 273 283 285 287 282 283 260 285 313 300 306 326 344 323 337 57 48 72 65 90 119 102 87 60 47 43 43 37 36 38 37
199 201 202 200 195 198 194 204 201 207 193 200 200 197 195 196 192 195 195 192 198 200 203 207 201 201 194 194 198 198 200 203 201 197 200 208 205 204 203 213 208 199 201 199 224 225 233 249 250 253 260 269 261 267 274 281 291 296 293 304 281 309 285 292 306 326 284 30 342 95 100 71 66 51 88 128 102 88 60 50 47 40 43 45 47
200 199 201 203 201 197 195 204 193 207 204 203 203 203 200 198 198 195 198 192 201 202 203 205 205 203 200 197 193 199 200 204 199 202 198 204 206 207 202 203 208 196 207 211 224 250 251 245 252 256 271 263 264 265 260 263 270 279 277 270 285 293 300 298 311 324 31 269 103 132 104 80 60 70 32 35 69 93 87 69 57 46 45 50 53
199 197 197 200 205 198 194 205 203 204 208 204 207 211 212 208 204 199 204 195 203 206 207 206 210 205 202 203 192 195 200 200 202 200 208 203 211 211 210 202 196 206 207 218 229 238 249 249 253 243 249 269 273 268 265 269 265 258 259 263 277 282 268 281 326 39 157 216 127 132 116 104 105 131 43 45 35 107 112 101 91 60 47 53 54
201 200 197 198 202 202 201 206 210 208 208 208 207 210 214 217 217 215 207 209 207 213 213 211 212 209 207 205 196 193 199 198 200 199 208 212 210 212 212 206 197 205 222 222 228 234 241 240 246 241 239 256 265 269 267 257 254 257 259 281 280 271 262 261 61 189 208 137 130 116 113 114 85 65 56 60 66 54 95 131 112 83 60 58 57
201 200 199 198 199 203 204 199 206 208 209 210 206 208 213 217 219 220 218 219 220 218 218 220 218 217 213 208 201 198 199 199 198 200 205 208 211 211 211 207 203 209 225 227 227 234 236 232 245 258 239 241 263 276 288 285 276 254 260 260 289 280 280 56 217 188 127 128 108 116 120 104 107 65 65 74 62 69 67 70 131 105 85 77 64
200 200 200 200 202 203 204 204 198 210 208 209 207 208 209 212 212 215 221 216 217 218 220 224 224 223 222 224 219 212 204 199 198 200 204 208 208 207 206 202 199 209 221 224 223 225 226 230 238 247 252 239 230 258 251 255 253 256 253 248 248 226 38 68 156 142 148 147 147 163 127 119 74 86 82 79 78 73 78 77 90 97 116 99 89
202 200 200 202 204 204 202 208 203 206 207 205 207 206 206 206 211 211 214 216 209 210 217 220 224 220 202 215 223 219 216 200 201 200 205 206 209 207 204 204 200 201 218 224 222 224 222 224 229 230 243 247 240 227 228 221 247 244 234 222 234 142 140 179 169 159 148 148 152 126 103 72 74 85 90 93 88 72 82 83 81 76 90 135 112
203 202 202 203 204 204 205 207 204 205 209 210 209 209 209 207 205 207 211 215 211 205 212 213 215 215 202 205 214 216 221 216 199 207 214 210 205 209 209 211 212 219 221 224 224 220 222 222 223 233 222 236 246 237 189 182 217 235 221 220 256 132 156 191 165 153 158 138 126 103 98 86 72 95 123 114 105 91 85 85 81 77 77 72 72
204 205 207 205 205 205 207 205 206 205 205 209 210 211 209 209 209 210 207 211 216 215 216 219 200 213 210 208 202 210 215 219 213 205 216 215 208 206 215 217 218 214 211 219 220 222 222 224 224 227 221 214 233 199 169 195 232 159 52 347 268 210 175 211 175 182 168 144 155 116 87 100 99 91 102 99 106 105 89 88 81 76 73 73 74
208 209 207 207 206 208 206 204 206 207 206 203 207 211 208 207 210 212 207 209 210 213 216 213 209 205 213 207 204 209 211 215 215 211 214 217 215 214 218 220 217 211 210 213 210 216 219 218 215 214 227 223 200 213 197 191 226 139 174 213 209 246 208 188 194 174 132 140 163 127 91 116 117 134 104 97 98 92 95 88 87 85 78 73 77
205 206 204 203 205 207 206 203 204 206 206 202 196 206 208 211 211 213 217 218 223 222 216 215 207 208 211 209 208 205 211 214 214 215 214 218 217 220 221 220 219 211 212 218 215 215 210 213 209 207 208 220 210 213 175 189 215 203 229 178 205 214 260 108 190 143 142 143 180 132 107 123 127 118 107 100 104 105 105 99 95 90 85 82 72
205 209 205 205 207 209 207 207 209 209 208 207 199 196 207 208 206 206 208 213 218 215 216 213 205 204 208 206 213 211 213 219 218 217 212 214 219 219 217 219 220 211 209 215 214 212 212 210 204 208 213 213 226 224 162 182 210 214 239 262 354 327 96 158 247 177 189 156 118 156 148 135 132 117 107 116 126 116 109 110 99 91 84 76 69
211 202 202 209 210 211 208 208 210 211 209 207 200 193 205 209 208 209 208 210 216 219 216 215 218 215 209 209 212 213 215 219 221 219 214 200 211 214 209 215 226 219 210 211 213 215 215 208 202 202 208 210 211 231 190 171 181 235 229 244 228 224 248 178 217 216 182 135 151 161 170 172 130 131 130 123 126 125 117 111 108 97 86 74 64
201 191 199 203 207 208 207 207 209 212 211 207 204 201 203 205 206 208 211 214 215 218 212 215 220 221 223 222 216 214 212 215 217 216 207 195 202 216 213 213 228 232 208 205 214 212 211 201 201 200 201 206 205 210 215 167 182 188 201 201 193 190 248 246 314 287 296 169 166 174 116 172 157 137 129 131 122 117 117 105 114 118 107 92 68
193 197 197 198 202 206 208 207 208 207 210 206 206 205 205 207 206 209 213 217 219 220 216 212 215 212 222 222 220 214 206 207 212 206 206 208 205 214 220 218 217 223 210 200 208 203 198 206 203 198 198 207 213 211 214 187 191 192 161 190 166 171 189 216 218 235 204 235 187 176 175 172 178 142 134 121 111 109 109 110 106 114 115 116 108
185 186 193 194 196 199 206 209 212 210 206 210 206 212 208 207 213 213 216 216 214 217 214 213 213 212 219 221 217 209 199 196 205 209 208 212 207 203 213 215 212 215 205 206 207 199 197 204 209 204 197 199 192 192 204 191 195 191 172 162 173 159 170 194 215 212 236 246 248 176 169 174 180 159 143 131 131 129 123 127 128 125 121 108 99
149 182 192 194 192 197 203 209 214 212 209 211 210 212 212 209 216 219 219 219 214 211 213 219 214 213 219 220 218 210 206 203 206 213 216 215 213 200 203 209 213 207 203 205 198 199 202 201 208 195 184 187 198 198 202 201 192 190 174 178 184 179 174 185 191 206 205 196 218 226 149 186 166 150 128 123 130 127 117 114 129 134 133 107 80